Time,TemperatureF,DewpointF,PressureIn,WindDirection,WindDirectionDegrees,WindSpeedMPH,WindSpeedGustMPH,Humidity,HourlyPrecipIn,Conditions,Clouds,dailyrainin,SoftwareType,DateUTC
2013-02-18 00:00:00,0.0,0.0,30.09,NNE,20,10.1,10.1,0,0.00,,---,0.00,VWS V14.01,2013-02-18 05:00:00,
2013-02-18 00:01:00,0.0,0.0,30.09,North,4,12.3,15.4,0,0.00,,---,0.00,VWS V14.01,2013-02-18 05:01:00,
2013-02-18 00:02:00,0.0,0.0,30.09,NW,317,15.0,15.0,0,0.00,,---,0.00,VWS V14.01,2013-02-18 05:02:00,
2013-02-18 00:05:00,0.0,0.0,30.09,NW,304,14.1,14.1,0,0.00,,---,0.00,VWS V14.01,2013-02-18 05:05:00,
2013-02-18 00:10:00,0.0,0.0,30.09,NNW,335,12.3,12.3,0,0.00,,---,0.00,VWS V14.01,2013-02-18 05:10:00,
2013-02-18 00:15:00,0.0,0.0,30.12,NE,54,19.7,22.8,0,0.00,,---,0.00,VWS V14.01,2013-02-18 05:15:00,
2013-02-18 00:21:00,0.0,0.0,30.12,North,0,12.8,15.9,0,0.00,,---,0.00,VWS V14.01,2013-02-18 05:21:00,
2013-02-18 00:27:00,0.0,0.0,30.12,NNW,334,14.1,23.3,0,0.00,,---,0.00,VWS V14.01,2013-02-18 05:27:00,
2013-02-18 00:32:00,0.0,0.0,30.12,NW,325,14.1,15.9,0,0.00,,---,0.00,VWS V14.01,2013-02-18 05:32:00,
2013-02-18 00:38:00,0.0,0.0,30.12,WNW,297,14.1,14.5,0,0.00,,---,0.00,VWS V14.01,2013-02-18 05:38:00,
2013-02-18 00:43:00,0.0,0.0,30.12,North,353,17.4,17.4,0,0.00,,---,0.00,VWS V14.01,2013-02-18 05:43:00,
2013-02-18 00:48:00,0.0,0.0,30.12,NW,324,18.3,25.1,0,0.00,,---,0.00,VWS V14.01,2013-02-18 05:48:00,
2013-02-18 00:53:00,0.0,0.0,30.12,NNW,331,6.3,24.6,0,0.00,,---,0.00,VWS V14.01,2013-02-18 05:53:00,
2013-02-18 00:58:00,0.0,0.0,30.12,NW,313,11.4,15.0,0,0.00,,---,0.00,VWS V14.01,2013-02-18 05:58:00,
2013-02-18 01:03:00,0.0,0.0,30.12,NNW,331,15.4,15.4,0,0.00,,---,0.00,VWS V14.01,2013-02-18 06:03:00,
2013-02-18 01:08:00,0.0,0.0,30.12,NNW,346,17.4,18.8,0,0.00,,---,0.00,VWS V14.01,2013-02-18 06:08:00,
2013-02-18 01:13:00,0.0,0.0,30.15,NNW,329,10.1,10.1,0,0.00,,---,0.00,VWS V14.01,2013-02-18 06:13:00,
2013-02-18 01:18:00,0.0,0.0,30.15,North,357,9.6,17.9,0,0.00,,---,0.00,VWS V14.01,2013-02-18 06:18:00,
2013-02-18 01:23:00,0.0,0.0,30.15,NW,317,11.9,11.9,0,0.00,,---,0.00,VWS V14.01,2013-02-18 06:23:00,
2013-02-18 01:28:00,0.0,0.0,30.15,NNW,340,15.0,21.0,0,0.00,,---,0.00,VWS V14.01,2013-02-18 06:28:00,
2013-02-18 01:33:00,0.0,0.0,30.15,NNE,24,10.5,10.5,0,0.00,,---,0.00,VWS V14.01,2013-02-18 06:33:00,
2013-02-18 01:38:00,0.0,0.0,30.15,NNW,340,12.3,17.0,0,0.00,,---,0.00,VWS V14.01,2013-02-18 06:38:00,
2013-02-18 01:43:00,0.0,0.0,30.15,NNW,335,8.1,15.0,0,0.00,,---,0.00,VWS V14.01,2013-02-18 06:43:00,
2013-02-18 01:48:00,0.0,0.0,30.15,NW,320,19.7,24.2,0,0.00,,---,0.00,VWS V14.01,2013-02-18 06:48:00,
2013-02-18 01:53:00,0.0,0.0,30.15,North,0,17.0,17.0,0,0.00,,---,0.00,VWS V14.01,2013-02-18 06:53:00,
2013-02-18 01:58:00,0.0,0.0,30.15,WNW,296,13.2,13.2,0,0.00,,---,0.00,VWS V14.01,2013-02-18 06:58:00,
2013-02-18 02:03:00,0.0,0.0,30.15,NW,319,15.0,18.8,0,0.00,,---,0.00,VWS V14.01,2013-02-18 07:03:00,
2013-02-18 02:08:00,0.0,0.0,30.15,NNW,342,10.1,11.0,0,0.00,,---,0.00,VWS V14.01,2013-02-18 07:08:00,
2013-02-18 02:13:00,0.0,0.0,30.15,NNW,329,25.7,25.7,0,0.00,,---,0.00,VWS V14.01,2013-02-18 07:13:00,
2013-02-18 02:18:00,0.0,0.0,30.15,NNW,328,13.6,13.6,0,0.00,,---,0.00,VWS V14.01,2013-02-18 07:18:00,
2013-02-18 02:23:00,0.0,0.0,30.15,NW,312,15.4,15.4,0,0.00,,---,0.00,VWS V14.01,2013-02-18 07:23:00,
2013-02-18 02:28:00,0.0,0.0,30.15,NNW,334,12.3,17.4,0,0.00,,---,0.00,VWS V14.01,2013-02-18 07:28:00,
2013-02-18 02:33:00,0.0,0.0,30.15,NW,323,12.3,12.3,0,0.00,,---,0.00,VWS V14.01,2013-02-18 07:33:00,
2013-02-18 02:38:00,0.0,0.0,30.15,NW,308,10.5,13.2,0,0.00,,---,0.00,VWS V14.01,2013-02-18 07:38:00,
2013-02-18 02:43:00,0.0,0.0,30.18,West,261,10.1,10.1,0,0.00,,---,0.00,VWS V14.01,2013-02-18 07:43:00,
2013-02-18 02:48:00,0.0,0.0,30.18,WNW,303,8.1,13.2,0,0.00,,---,0.00,VWS V14.01,2013-02-18 07:48:00,
2013-02-18 02:53:00,0.0,0.0,30.18,North,357,14.5,14.5,0,0.00,,---,0.00,VWS V14.01,2013-02-18 07:53:00,
2013-02-18 02:58:00,0.0,0.0,30.18,North,0,17.4,17.9,0,0.00,,---,0.00,VWS V14.01,2013-02-18 07:58:00,
2013-02-18 03:03:00,0.0,0.0,30.18,North,353,8.7,19.7,0,0.00,,---,0.00,VWS V14.01,2013-02-18 08:03:00,
2013-02-18 03:08:00,0.0,0.0,30.18,NNW,343,11.0,13.6,0,0.00,,---,0.00,VWS V14.01,2013-02-18 08:08:00,
2013-02-18 03:13:00,0.0,0.0,30.18,NNW,332,10.5,13.6,0,0.00,,---,0.00,VWS V14.01,2013-02-18 08:13:00,
2013-02-18 03:18:00,0.0,0.0,30.18,NW,320,11.0,13.2,0,0.00,,---,0.00,VWS V14.01,2013-02-18 08:18:00,
2013-02-18 03:23:00,0.0,0.0,30.18,NNW,329,15.0,15.0,0,0.00,,---,0.00,VWS V14.01,2013-02-18 08:23:00,
2013-02-18 03:28:00,0.0,0.0,30.15,North,357,8.1,13.2,0,0.00,,---,0.00,VWS V14.01,2013-02-18 08:28:00,
2013-02-18 03:33:00,0.0,0.0,30.15,NNW,327,10.1,14.5,0,0.00,,---,0.00,VWS V14.01,2013-02-18 08:33:00,
2013-02-18 03:38:00,0.0,0.0,30.15,NW,322,12.8,12.8,0,0.00,,---,0.00,VWS V14.01,2013-02-18 08:38:00,
2013-02-18 03:43:00,0.0,0.0,30.18,North,357,8.3,11.0,0,0.00,,---,0.00,VWS V14.01,2013-02-18 08:43:00,
2013-02-18 03:48:00,0.0,0.0,30.18,NW,325,5.8,14.5,0,0.00,,---,0.00,VWS V14.01,2013-02-18 08:48:00,
2013-02-18 03:53:00,0.0,0.0,30.18,NW,308,14.1,14.1,0,0.00,,---,0.00,VWS V14.01,2013-02-18 08:53:00,
2013-02-18 03:58:00,0.0,0.0,30.18,NW,322,15.0,15.9,0,0.00,,---,0.00,VWS V14.01,2013-02-18 08:58:00,
2013-02-18 04:03:00,0.0,0.0,30.18,NW,321,12.3,12.8,0,0.00,,---,0.00,VWS V14.01,2013-02-18 09:03:00,
2013-02-18 04:08:00,0.0,0.0,30.18,NNW,327,16.8,19.7,0,0.00,,---,0.00,VWS V14.01,2013-02-18 09:08:00,
2013-02-18 04:13:00,0.0,0.0,30.18,North,10,6.3,6.3,0,0.00,,---,0.00,VWS V14.01,2013-02-18 09:13:00,
2013-02-18 04:18:00,0.0,0.0,30.18,NE,56,13.2,17.0,0,0.00,,---,0.00,VWS V14.01,2013-02-18 09:18:00,
2013-02-18 04:23:00,0.0,0.0,30.18,NNW,327,13.2,13.2,0,0.00,,---,0.00,VWS V14.01,2013-02-18 09:23:00,
2013-02-18 04:28:00,0.0,0.0,30.21,NW,320,7.6,9.6,0,0.00,,---,0.00,VWS V14.01,2013-02-18 09:28:00,
2013-02-18 04:33:00,0.0,0.0,30.21,NW,312,15.0,18.3,0,0.00,,---,0.00,VWS V14.01,2013-02-18 09:33:00,
2013-02-18 04:38:00,0.0,0.0,30.21,NNW,335,9.2,15.4,0,0.00,,---,0.00,VWS V14.01,2013-02-18 09:38:00,
2013-02-18 04:43:00,0.0,0.0,30.21,North,5,10.5,20.1,0,0.00,,---,0.00,VWS V14.01,2013-02-18 09:43:00,
2013-02-18 04:48:00,0.0,0.0,30.21,WNW,303,8.7,8.7,0,0.00,,---,0.00,VWS V14.01,2013-02-18 09:48:00,
2013-02-18 04:53:00,0.0,0.0,30.21,NW,312,10.5,14.1,0,0.00,,---,0.00,VWS V14.01,2013-02-18 09:53:00,
2013-02-18 04:58:00,0.0,0.0,30.24,WNW,301,8.7,11.0,0,0.00,,---,0.00,VWS V14.01,2013-02-18 09:58:00,
2013-02-18 05:03:00,0.0,0.0,30.24,NW,310,12.8,12.8,0,0.00,,---,0.00,VWS V14.01,2013-02-18 10:03:00,
2013-02-18 05:09:00,0.0,0.0,30.24,NW,322,8.7,13.6,0,0.00,,---,0.00,VWS V14.01,2013-02-18 10:09:00,
2013-02-18 05:14:00,0.0,0.0,30.24,NW,304,11.0,11.0,0,0.00,,---,0.00,VWS V14.01,2013-02-18 10:14:00,
2013-02-18 05:19:00,0.0,0.0,30.24,NW,319,10.5,12.8,0,0.00,,---,0.00,VWS V14.01,2013-02-18 10:19:00,
2013-02-18 05:24:00,0.0,0.0,30.24,NW,318,12.8,12.8,0,0.00,,---,0.00,VWS V14.01,2013-02-18 10:24:00,
2013-02-18 05:29:00,0.0,0.0,30.24,NW,319,8.7,9.6,0,0.00,,---,0.00,VWS V14.01,2013-02-18 10:29:00,
2013-02-18 05:34:00,0.0,0.0,30.24,NW,307,15.0,15.0,0,0.00,,---,0.00,VWS V14.01,2013-02-18 10:34:00,
2013-02-18 05:39:00,0.0,0.0,30.24,NW,310,8.3,16.3,0,0.00,,---,0.00,VWS V14.01,2013-02-18 10:39:00,
2013-02-18 05:44:00,0.0,0.0,30.27,WNW,286,15.0,15.0,0,0.00,,---,0.00,VWS V14.01,2013-02-18 10:44:00,
2013-02-18 05:49:00,0.0,0.0,30.27,NNW,327,8.3,11.0,0,0.00,,---,0.00,VWS V14.01,2013-02-18 10:49:00,
2013-02-18 05:54:00,0.0,0.0,30.27,NNW,346,6.3,13.2,0,0.00,,---,0.00,VWS V14.01,2013-02-18 10:54:00,
2013-02-18 05:59:00,0.0,0.0,30.27,NW,315,8.1,12.3,0,0.00,,---,0.00,VWS V14.01,2013-02-18 10:59:00,
2013-02-18 06:04:00,0.0,0.0,30.27,NNW,342,11.0,15.4,0,0.00,,---,0.00,VWS V14.01,2013-02-18 11:04:00,
2013-02-18 06:09:00,0.0,0.0,30.27,NNW,341,6.3,10.5,0,0.00,,---,0.00,VWS V14.01,2013-02-18 11:09:00,
2013-02-18 06:14:00,0.0,0.0,30.27,NW,326,13.2,13.2,0,0.00,,---,0.00,VWS V14.01,2013-02-18 11:14:00,
2013-02-18 06:19:00,0.0,0.0,30.27,NW,314,15.0,15.9,0,0.00,,---,0.00,VWS V14.01,2013-02-18 11:19:00,
2013-02-18 06:24:00,0.0,0.0,30.27,NNW,348,12.8,19.2,0,0.00,,---,0.00,VWS V14.01,2013-02-18 11:24:00,
2013-02-18 06:29:00,0.0,0.0,30.27,NW,316,13.2,14.5,0,0.00,,---,0.00,VWS V14.01,2013-02-18 11:29:00,
2013-02-18 06:34:00,0.0,0.0,30.27,NNW,335,8.3,13.2,0,0.00,,---,0.00,VWS V14.01,2013-02-18 11:34:00,
2013-02-18 06:39:00,0.0,0.0,30.27,NW,325,12.8,17.9,0,0.00,,---,0.00,VWS V14.01,2013-02-18 11:39:00,
2013-02-18 06:44:00,0.0,0.0,30.30,NW,320,10.1,13.2,0,0.00,,---,0.00,VWS V14.01,2013-02-18 11:44:00,
2013-02-18 06:49:00,0.0,0.0,30.30,NW,322,7.6,19.7,0,0.00,,---,0.00,VWS V14.01,2013-02-18 11:49:00,
2013-02-18 06:54:00,0.0,0.0,30.30,NW,319,10.5,14.1,0,0.00,,---,0.00,VWS V14.01,2013-02-18 11:54:00,
2013-02-18 06:59:00,0.0,0.0,30.30,NNW,340,8.3,13.2,0,0.00,,---,0.00,VWS V14.01,2013-02-18 11:59:00,
2013-02-18 07:04:00,0.0,0.0,30.30,WNW,290,10.1,13.2,0,0.00,,---,0.00,VWS V14.01,2013-02-18 12:04:00,
2013-02-18 07:09:00,0.0,0.0,30.30,NNW,334,9.6,9.6,0,0.00,,---,0.00,VWS V14.01,2013-02-18 12:09:00,
2013-02-18 07:14:00,0.0,0.0,30.30,NW,320,11.0,13.2,0,0.00,,---,0.00,VWS V14.01,2013-02-18 12:14:00,
2013-02-18 07:19:00,0.0,0.0,30.30,West,269,10.1,10.1,0,0.00,,---,0.00,VWS V14.01,2013-02-18 12:19:00,
2013-02-18 07:24:00,0.0,0.0,30.30,WNW,300,16.8,16.8,0,0.00,,---,0.00,VWS V14.01,2013-02-18 12:24:00,
2013-02-18 07:29:00,0.0,0.0,30.30,North,353,13.2,13.2,0,0.00,,---,0.00,VWS V14.01,2013-02-18 12:29:00,
2013-02-18 07:34:00,0.0,0.0,30.30,NNW,330,19.2,20.1,0,0.00,,---,0.00,VWS V14.01,2013-02-18 12:34:00,
2013-02-18 07:39:00,0.0,0.0,30.30,North,357,15.0,17.4,0,0.00,,---,0.00,VWS V14.01,2013-02-18 12:39:00,
2013-02-18 07:44:00,0.0,0.0,30.30,NW,312,12.3,12.3,0,0.00,,---,0.00,VWS V14.01,2013-02-18 12:44:00,
2013-02-18 07:49:00,0.0,0.0,30.30,NW,314,11.4,20.6,0,0.00,,---,0.00,VWS V14.01,2013-02-18 12:49:00,
2013-02-18 07:54:00,0.0,0.0,30.30,NNE,13,7.6,17.4,0,0.00,,---,0.00,VWS V14.01,2013-02-18 12:54:00,
2013-02-18 07:59:00,0.0,0.0,30.33,NW,318,21.9,21.9,0,0.00,,---,0.00,VWS V14.01,2013-02-18 12:59:00,
2013-02-18 08:04:00,0.0,0.0,30.33,NW,321,11.9,17.4,0,0.00,,---,0.00,VWS V14.01,2013-02-18 13:04:00,
2013-02-18 08:09:00,0.0,0.0,30.33,NNW,341,11.0,12.8,0,0.00,,---,0.00,VWS V14.01,2013-02-18 13:09:00,
2013-02-18 08:14:00,0.0,0.0,30.33,North,357,8.3,8.3,0,0.00,,---,0.00,VWS V14.01,2013-02-18 13:14:00,
2013-02-18 08:19:00,0.0,0.0,30.33,NW,310,6.7,15.9,0,0.00,,---,0.00,VWS V14.01,2013-02-18 13:19:00,
2013-02-18 08:24:00,0.0,0.0,30.33,NW,323,7.2,15.0,0,0.00,,---,0.00,VWS V14.01,2013-02-18 13:24:00,
2013-02-18 08:29:00,0.0,0.0,30.33,NNW,346,10.5,12.8,0,0.00,,---,0.00,VWS V14.01,2013-02-18 13:29:00,
2013-02-18 08:34:00,0.0,0.0,30.33,NW,323,21.0,21.0,0,0.00,,---,0.00,VWS V14.01,2013-02-18 13:34:00,
2013-02-18 08:39:00,0.0,0.0,30.33,NW,311,15.4,15.4,0,0.00,,---,0.00,VWS V14.01,2013-02-18 13:39:00,
2013-02-18 08:44:00,0.0,0.0,30.33,NNW,330,13.2,16.8,0,0.00,,---,0.00,VWS V14.01,2013-02-18 13:44:00,
2013-02-18 08:49:00,0.0,0.0,30.33,NW,317,13.2,18.3,0,0.00,,---,0.00,VWS V14.01,2013-02-18 13:49:00,
2013-02-18 08:54:00,0.0,0.0,30.33,NNW,342,12.8,21.0,0,0.00,,---,0.00,VWS V14.01,2013-02-18 13:54:00,
2013-02-18 08:59:00,0.0,0.0,30.33,NW,321,16.3,18.3,0,0.00,,---,0.00,VWS V14.01,2013-02-18 13:59:00,
2013-02-18 09:04:00,0.0,0.0,30.33,NW,312,17.0,18.8,0,0.00,,---,0.00,VWS V14.01,2013-02-18 14:04:00,
2013-02-18 09:09:00,0.0,0.0,30.33,NW,320,8.3,8.3,0,0.00,,---,0.00,VWS V14.01,2013-02-18 14:09:00,
2013-02-18 09:14:00,0.0,0.0,30.33,NNW,345,8.3,11.0,0,0.00,,---,0.00,VWS V14.01,2013-02-18 14:14:00,
2013-02-18 09:19:00,0.0,0.0,30.33,NW,318,11.0,17.0,0,0.00,,---,0.00,VWS V14.01,2013-02-18 14:19:00,
2013-02-18 09:24:00,0.0,0.0,30.33,North,0,12.3,12.3,0,0.00,,---,0.00,VWS V14.01,2013-02-18 14:24:00,
2013-02-18 09:29:00,0.0,0.0,30.33,NNW,333,10.5,10.5,0,0.00,,---,0.00,VWS V14.01,2013-02-18 14:29:00,
2013-02-18 09:34:00,0.0,0.0,30.33,NW,315,4.0,8.7,0,0.00,,---,0.00,VWS V14.01,2013-02-18 14:34:00,
2013-02-18 09:39:00,0.0,0.0,30.33,NNW,346,12.8,15.0,0,0.00,,---,0.00,VWS V14.01,2013-02-18 14:39:00,
2013-02-18 09:44:00,0.0,0.0,30.33,NW,312,8.7,12.8,0,0.00,,---,0.00,VWS V14.01,2013-02-18 14:44:00,
2013-02-18 09:49:00,0.0,0.0,30.33,North,11,10.5,12.8,0,0.00,,---,0.00,VWS V14.01,2013-02-18 14:49:00,
2013-02-18 09:54:00,0.0,0.0,30.33,NW,304,7.6,9.6,0,0.00,,---,0.00,VWS V14.01,2013-02-18 14:54:00,
2013-02-18 09:59:00,0.0,0.0,30.36,NNW,342,5.4,7.6,0,0.00,,---,0.00,VWS V14.01,2013-02-18 14:59:00,
2013-02-18 10:04:00,0.0,0.0,30.36,NNW,335,15.4,15.4,0,0.00,,---,0.00,VWS V14.01,2013-02-18 15:04:00,
2013-02-18 10:09:00,0.0,0.0,30.36,WNW,297,14.1,14.1,0,0.00,,---,0.00,VWS V14.01,2013-02-18 15:09:00,
2013-02-18 10:14:00,0.0,0.0,30.36,NW,318,9.6,14.1,0,0.00,,---,0.00,VWS V14.01,2013-02-18 15:14:00,
2013-02-18 10:19:00,0.0,0.0,30.36,NW,317,17.0,17.0,0,0.00,,---,0.00,VWS V14.01,2013-02-18 15:19:00,
2013-02-18 10:24:00,0.0,0.0,30.36,NW,311,12.8,12.8,0,0.00,,---,0.00,VWS V14.01,2013-02-18 15:24:00,
2013-02-18 10:29:00,0.0,0.0,30.33,NW,315,19.2,19.2,0,0.00,,---,0.00,VWS V14.01,2013-02-18 15:29:00,
2013-02-18 10:34:00,0.0,0.0,30.33,WNW,303,7.6,12.8,0,0.00,,---,0.00,VWS V14.01,2013-02-18 15:34:00,
2013-02-18 10:39:00,0.0,0.0,30.33,North,353,4.9,10.5,0,0.00,,---,0.00,VWS V14.01,2013-02-18 15:39:00,
2013-02-18 10:44:00,0.0,0.0,30.33,NNW,333,11.0,19.7,0,0.00,,---,0.00,VWS V14.01,2013-02-18 15:44:00,
2013-02-18 10:49:00,0.0,0.0,30.33,NW,320,14.1,15.4,0,0.00,,---,0.00,VWS V14.01,2013-02-18 15:49:00,
2013-02-18 10:54:00,0.0,0.0,30.33,NNW,341,17.0,17.0,0,0.00,,---,0.00,VWS V14.01,2013-02-18 15:54:00,
2013-02-18 10:59:00,0.0,0.0,30.33,NW,310,17.4,17.4,0,0.00,,---,0.00,VWS V14.01,2013-02-18 15:59:00,
2013-02-18 11:04:00,0.0,0.0,30.33,NW,317,12.8,12.8,0,0.00,,---,0.00,VWS V14.01,2013-02-18 16:04:00,
2013-02-18 11:09:00,0.0,0.0,30.33,NW,310,19.2,19.2,0,0.00,,---,0.00,VWS V14.01,2013-02-18 16:09:00,
2013-02-18 11:14:00,0.0,0.0,30.33,NW,325,14.1,14.1,0,0.00,,---,0.00,VWS V14.01,2013-02-18 16:14:00,
2013-02-18 11:19:00,0.0,0.0,30.33,NW,306,17.4,24.2,0,0.00,,---,0.00,VWS V14.01,2013-02-18 16:19:00,
2013-02-18 11:24:00,0.0,0.0,30.33,NW,311,15.0,15.0,0,0.00,,---,0.00,VWS V14.01,2013-02-18 16:24:00,
2013-02-18 11:29:00,0.0,0.0,30.33,NNW,328,13.6,15.4,0,0.00,,---,0.00,VWS V14.01,2013-02-18 16:29:00,
2013-02-18 11:34:00,0.0,0.0,30.33,NW,311,12.3,12.3,0,0.00,,---,0.00,VWS V14.01,2013-02-18 16:34:00,
2013-02-18 11:39:00,0.0,0.0,30.33,WNW,297,13.2,18.8,0,0.00,,---,0.00,VWS V14.01,2013-02-18 16:39:00,
2013-02-18 11:44:00,0.0,0.0,30.33,WNW,299,12.3,17.4,0,0.00,,---,0.00,VWS V14.01,2013-02-18 16:44:00,
2013-02-18 11:49:00,0.0,0.0,30.33,NW,317,14.5,14.5,0,0.00,,---,0.00,VWS V14.01,2013-02-18 16:49:00,
2013-02-18 11:54:00,0.0,0.0,30.33,WNW,296,8.3,12.3,0,0.00,,---,0.00,VWS V14.01,2013-02-18 16:54:00,
2013-02-18 11:59:00,0.0,0.0,30.33,NNW,333,15.4,15.4,0,0.00,,---,0.00,VWS V14.01,2013-02-18 16:59:00,
2013-02-18 12:05:00,0.0,0.0,30.33,NW,311,12.3,16.3,0,0.00,,---,0.00,VWS V14.01,2013-02-18 17:05:00,
2013-02-18 12:10:00,0.0,0.0,30.33,NW,313,17.4,17.4,0,0.00,,---,0.00,VWS V14.01,2013-02-18 17:10:00,
2013-02-18 12:15:00,0.0,0.0,30.33,West,275,12.3,17.4,0,0.00,,---,0.00,VWS V14.01,2013-02-18 17:15:00,
2013-02-18 12:20:00,0.0,0.0,30.33,WNW,303,8.1,12.8,0,0.00,,---,0.00,VWS V14.01,2013-02-18 17:20:00,
2013-02-18 12:25:00,0.0,0.0,30.33,NW,315,10.5,15.0,0,0.00,,---,0.00,VWS V14.01,2013-02-18 17:25:00,
2013-02-18 12:30:00,0.0,0.0,30.33,NW,323,12.8,12.8,0,0.00,,---,0.00,VWS V14.01,2013-02-18 17:30:00,
2013-02-18 12:35:00,0.0,0.0,30.33,NW,312,13.2,13.2,0,0.00,,---,0.00,VWS V14.01,2013-02-18 17:35:00,
2013-02-18 12:40:00,0.0,0.0,30.33,WNW,289,13.2,14.1,0,0.00,,---,0.00,VWS V14.01,2013-02-18 17:40:00,
2013-02-18 12:45:00,0.0,0.0,30.30,NW,316,8.1,8.1,0,0.00,,---,0.00,VWS V14.01,2013-02-18 17:45:00,
2013-02-18 12:50:00,0.0,0.0,30.30,WNW,300,9.6,9.6,0,0.00,,---,0.00,VWS V14.01,2013-02-18 17:50:00,
2013-02-18 12:55:00,0.0,0.0,30.30,WNW,303,8.1,8.1,0,0.00,,---,0.00,VWS V14.01,2013-02-18 17:55:00,
2013-02-18 13:00:00,0.0,0.0,30.30,NW,307,11.4,16.8,0,0.00,,---,0.00,VWS V14.01,2013-02-18 18:00:00,
2013-02-18 13:05:00,0.0,0.0,30.30,West,281,8.7,8.7,0,0.00,,---,0.00,VWS V14.01,2013-02-18 18:05:00,
2013-02-18 13:10:00,0.0,0.0,30.30,NW,319,12.8,12.8,0,0.00,,---,0.00,VWS V14.01,2013-02-18 18:10:00,
2013-02-18 13:15:00,0.0,0.0,30.30,WNW,297,10.5,15.4,0,0.00,,---,0.00,VWS V14.01,2013-02-18 18:15:00,
2013-02-18 13:20:00,0.0,0.0,30.30,WNW,288,10.1,13.6,0,0.00,,---,0.00,VWS V14.01,2013-02-18 18:20:00,
2013-02-18 13:25:00,0.0,0.0,30.30,WNW,290,10.1,14.5,0,0.00,,---,0.00,VWS V14.01,2013-02-18 18:25:00,
2013-02-18 13:30:00,0.0,0.0,30.30,WNW,285,9.6,15.0,0,0.00,,---,0.00,VWS V14.01,2013-02-18 18:30:00,
2013-02-18 13:35:00,0.0,0.0,30.30,NW,316,11.0,11.0,0,0.00,,---,0.00,VWS V14.01,2013-02-18 18:35:00,
2013-02-18 13:40:00,0.0,0.0,30.30,WNW,292,11.4,17.4,0,0.00,,---,0.00,VWS V14.01,2013-02-18 18:40:00,
2013-02-18 13:45:00,0.0,0.0,30.30,WNW,296,17.4,17.4,0,0.00,,---,0.00,VWS V14.01,2013-02-18 18:45:00,
2013-02-18 13:50:00,0.0,0.0,30.30,WNW,288,12.8,15.4,0,0.00,,---,0.00,VWS V14.01,2013-02-18 18:50:00,
2013-02-18 13:55:00,0.0,0.0,30.30,WNW,297,15.0,18.8,0,0.00,,---,0.00,VWS V14.01,2013-02-18 18:55:00,
2013-02-18 14:00:00,0.0,0.0,30.30,WNW,284,17.9,17.9,0,0.00,,---,0.00,VWS V14.01,2013-02-18 19:00:00,
2013-02-18 14:05:00,0.0,0.0,30.30,WNW,299,10.5,15.0,0,0.00,,---,0.00,VWS V14.01,2013-02-18 19:05:00,
2013-02-18 14:10:00,0.0,0.0,30.30,NW,308,12.8,12.8,0,0.00,,---,0.00,VWS V14.01,2013-02-18 19:10:00,
2013-02-18 14:15:00,0.0,0.0,30.30,West,277,10.5,10.5,0,0.00,,---,0.00,VWS V14.01,2013-02-18 19:15:00,
2013-02-18 14:20:00,0.0,0.0,30.30,West,273,12.8,15.4,0,0.00,,---,0.00,VWS V14.01,2013-02-18 19:20:00,
2013-02-18 14:25:00,0.0,0.0,30.30,NW,319,12.3,14.5,0,0.00,,---,0.00,VWS V14.01,2013-02-18 19:25:00,
2013-02-18 14:30:00,0.0,0.0,30.27,NW,315,15.0,15.0,0,0.00,,---,0.00,VWS V14.01,2013-02-18 19:30:00,
2013-02-18 14:35:00,0.0,0.0,30.27,NW,304,9.6,15.0,0,0.00,,---,0.00,VWS V14.01,2013-02-18 19:35:00,
2013-02-18 14:40:00,0.0,0.0,30.27,WNW,296,15.4,15.4,0,0.00,,---,0.00,VWS V14.01,2013-02-18 19:40:00,
2013-02-18 14:45:00,0.0,0.0,30.27,WNW,294,11.0,15.0,0,0.00,,---,0.00,VWS V14.01,2013-02-18 19:45:00,
2013-02-18 14:50:00,0.0,0.0,30.27,West,272,12.8,12.8,0,0.00,,---,0.00,VWS V14.01,2013-02-18 19:50:00,
2013-02-18 14:55:00,0.0,0.0,30.27,West,275,10.5,10.5,0,0.00,,---,0.00,VWS V14.01,2013-02-18 19:55:00,
2013-02-18 15:00:00,0.0,0.0,30.30,West,278,11.0,12.3,0,0.00,,---,0.00,VWS V14.01,2013-02-18 20:00:00,
2013-02-18 15:05:00,0.0,0.0,30.30,WNW,288,6.3,8.3,0,0.00,,---,0.00,VWS V14.01,2013-02-18 20:05:00,
2013-02-18 15:10:00,0.0,0.0,30.30,WNW,300,10.1,15.4,0,0.00,,---,0.00,VWS V14.01,2013-02-18 20:10:00,
2013-02-18 15:15:00,0.0,0.0,30.30,NW,308,12.8,13.2,0,0.00,,---,0.00,VWS V14.01,2013-02-18 20:15:00,
2013-02-18 15:20:00,0.0,0.0,30.30,NW,311,11.0,11.0,0,0.00,,---,0.00,VWS V14.01,2013-02-18 20:20:00,
2013-02-18 15:25:00,0.0,0.0,30.30,NW,308,11.0,15.0,0,0.00,,---,0.00,VWS V14.01,2013-02-18 20:25:00,
2013-02-18 15:30:00,0.0,0.0,30.27,WNW,297,12.8,12.8,0,0.00,,---,0.00,VWS V14.01,2013-02-18 20:30:00,
2013-02-18 15:35:00,0.0,0.0,30.27,WNW,298,6.3,12.3,0,0.00,,---,0.00,VWS V14.01,2013-02-18 20:35:00,
2013-02-18 15:40:00,0.0,0.0,30.27,West,272,6.3,10.5,0,0.00,,---,0.00,VWS V14.01,2013-02-18 20:40:00,
2013-02-18 15:45:00,0.0,0.0,30.27,WNW,299,8.3,12.3,0,0.00,,---,0.00,VWS V14.01,2013-02-18 20:45:00,
2013-02-18 15:50:00,0.0,0.0,30.27,NW,306,11.0,11.0,0,0.00,,---,0.00,VWS V14.01,2013-02-18 20:50:00,
2013-02-18 15:56:00,0.0,0.0,30.27,West,274,11.0,12.3,0,0.00,,---,0.00,VWS V14.01,2013-02-18 20:56:00,
2013-02-18 16:02:00,0.0,0.0,30.27,NW,320,15.0,15.0,0,0.00,,---,0.00,VWS V14.01,2013-02-18 21:02:00,
2013-02-18 16:07:00,0.0,0.0,30.27,West,276,5.8,15.4,0,0.00,,---,0.00,VWS V14.01,2013-02-18 21:07:00,
2013-02-18 16:13:00,0.0,0.0,30.27,NW,311,8.3,11.0,0,0.00,,---,0.00,VWS V14.01,2013-02-18 21:13:00,
2013-02-18 16:19:00,0.0,0.0,30.27,West,264,8.3,12.3,0,0.00,,---,0.00,VWS V14.01,2013-02-18 21:19:00,
2013-02-18 16:24:00,0.0,0.0,30.27,WNW,297,12.3,12.3,0,0.00,,---,0.00,VWS V14.01,2013-02-18 21:24:00,
2013-02-18 16:30:00,0.0,0.0,30.27,NW,320,8.1,10.5,0,0.00,,---,0.00,VWS V14.01,2013-02-18 21:30:00,
2013-02-18 16:35:00,0.0,0.0,30.27,West,275,4.9,8.7,0,0.00,,---,0.00,VWS V14.01,2013-02-18 21:35:00,
2013-02-18 16:41:00,0.0,0.0,30.27,NW,307,6.3,8.7,0,0.00,,---,0.00,VWS V14.01,2013-02-18 21:41:00,
2013-02-18 16:46:00,0.0,0.0,30.27,WNW,293,8.3,8.3,0,0.00,,---,0.00,VWS V14.01,2013-02-18 21:46:00,
2013-02-18 16:51:00,0.0,0.0,30.27,WNW,287,7.6,8.1,0,0.00,,---,0.00,VWS V14.01,2013-02-18 21:51:00,
2013-02-18 16:56:00,0.0,0.0,30.27,WNW,285,6.3,6.3,0,0.00,,---,0.00,VWS V14.01,2013-02-18 21:56:00,
2013-02-18 17:01:00,0.0,0.0,30.27,West,280,8.3,10.1,0,0.00,,---,0.00,VWS V14.01,2013-02-18 22:01:00,
2013-02-18 17:06:00,0.0,0.0,30.27,WNW,299,5.4,5.8,0,0.00,,---,0.00,VWS V14.01,2013-02-18 22:06:00,
2013-02-18 17:11:00,0.0,0.0,30.27,NNW,335,7.6,11.0,0,0.00,,---,0.00,VWS V14.01,2013-02-18 22:11:00,
2013-02-18 17:16:00,0.0,0.0,30.27,West,277,5.8,7.6,0,0.00,,---,0.00,VWS V14.01,2013-02-18 22:16:00,
2013-02-18 17:21:00,0.0,0.0,30.27,NW,306,6.3,6.3,0,0.00,,---,0.00,VWS V14.01,2013-02-18 22:21:00,
2013-02-18 17:26:00,0.0,0.0,30.27,WNW,291,6.3,7.6,0,0.00,,---,0.00,VWS V14.01,2013-02-18 22:26:00,
2013-02-18 17:31:00,0.0,0.0,30.27,West,271,5.8,5.8,0,0.00,,---,0.00,VWS V14.01,2013-02-18 22:31:00,
2013-02-18 17:36:00,0.0,0.0,30.27,West,273,4.9,5.8,0,0.00,,---,0.00,VWS V14.01,2013-02-18 22:36:00,
2013-02-18 17:41:00,0.0,0.0,30.27,West,280,5.4,5.4,0,0.00,,---,0.00,VWS V14.01,2013-02-18 22:41:00,
2013-02-18 17:46:00,0.0,0.0,30.27,West,279,5.4,7.6,0,0.00,,---,0.00,VWS V14.01,2013-02-18 22:46:00,
2013-02-18 17:51:00,0.0,0.0,30.27,WNW,292,6.3,6.3,0,0.00,,---,0.00,VWS V14.01,2013-02-18 22:51:00,
2013-02-18 17:56:00,0.0,0.0,30.27,West,281,3.1,4.0,0,0.00,,---,0.00,VWS V14.01,2013-02-18 22:56:00,
2013-02-18 18:01:00,0.0,0.0,30.27,West,276,5.8,5.8,0,0.00,,---,0.00,VWS V14.01,2013-02-18 23:01:00,
2013-02-18 18:06:00,0.0,0.0,30.27,WNW,285,4.9,5.4,0,0.00,,---,0.00,VWS V14.01,2013-02-18 23:06:00,
2013-02-18 18:11:00,0.0,0.0,30.27,WNW,282,3.1,4.0,0,0.00,,---,0.00,VWS V14.01,2013-02-18 23:11:00,
2013-02-18 18:16:00,0.0,0.0,30.30,WSW,257,3.6,3.6,0,0.00,,---,0.00,VWS V14.01,2013-02-18 23:16:00,
2013-02-18 18:21:00,0.0,0.0,30.30,West,274,3.1,4.0,0,0.00,,---,0.00,VWS V14.01,2013-02-18 23:21:00,
2013-02-18 18:26:00,0.0,0.0,30.30,West,274,4.0,4.0,0,0.00,,---,0.00,VWS V14.01,2013-02-18 23:26:00,
2013-02-18 18:31:00,0.0,0.0,30.30,West,273,3.6,4.0,0,0.00,,---,0.00,VWS V14.01,2013-02-18 23:31:00,
2013-02-18 18:36:00,0.0,0.0,30.30,West,272,4.0,4.0,0,0.00,,---,0.00,VWS V14.01,2013-02-18 23:36:00,
2013-02-18 18:41:00,0.0,0.0,30.30,West,266,0.0,0.0,0,0.00,,---,0.00,VWS V14.01,2013-02-18 23:41:00,
2013-02-18 18:46:00,0.0,0.0,30.30,West,266,0.0,0.0,0,0.00,,---,0.00,VWS V14.01,2013-02-18 23:46:00,
2013-02-18 18:51:00,0.0,0.0,30.30,WSW,256,3.1,3.6,0,0.00,,---,0.00,VWS V14.01,2013-02-18 23:51:00,
2013-02-18 18:56:00,0.0,0.0,30.30,West,263,4.0,4.0,0,0.00,,---,0.00,VWS V14.01,2013-02-18 23:56:00,
2013-02-18 19:01:00,0.0,0.0,30.30,West,259,2.7,4.0,0,0.00,,---,0.00,VWS V14.01,2013-02-19 00:01:00,
2013-02-18 19:06:00,0.0,0.0,30.30,WSW,256,0.0,0.0,0,0.00,,---,0.00,VWS V14.01,2013-02-19 00:06:00,
2013-02-18 19:11:00,0.0,0.0,30.30,West,271,0.0,3.1,0,0.00,,---,0.00,VWS V14.01,2013-02-19 00:11:00,
2013-02-18 19:16:00,0.0,0.0,30.30,West,261,0.0,3.6,0,0.00,,---,0.00,VWS V14.01,2013-02-19 00:16:00,
2013-02-18 19:21:00,0.0,0.0,30.30,West,277,2.7,3.6,0,0.00,,---,0.00,VWS V14.01,2013-02-19 00:21:00,
2013-02-18 19:27:00,0.0,0.0,30.30,West,278,2.2,4.0,0,0.00,,---,0.00,VWS V14.01,2013-02-19 00:27:00,
2013-02-18 19:32:00,0.0,0.0,30.30,WSW,244,3.6,4.0,0,0.00,,---,0.00,VWS V14.01,2013-02-19 00:32:00,
2013-02-18 19:37:00,0.0,0.0,30.30,WSW,253,3.1,5.4,0,0.00,,---,0.00,VWS V14.01,2013-02-19 00:37:00,
2013-02-18 19:42:00,0.0,0.0,30.30,West,260,4.0,4.0,0,0.00,,---,0.00,VWS V14.01,2013-02-19 00:42:00,
2013-02-18 19:47:00,0.0,0.0,30.30,WSW,252,3.6,3.6,0,0.00,,---,0.00,VWS V14.01,2013-02-19 00:47:00,
2013-02-18 19:52:00,0.0,0.0,30.30,West,266,2.7,3.1,0,0.00,,---,0.00,VWS V14.01,2013-02-19 00:52:00,
2013-02-18 19:57:00,0.0,0.0,30.30,West,259,4.0,4.0,0,0.00,,---,0.00,VWS V14.01,2013-02-19 00:57:00,
2013-02-18 20:02:00,0.0,0.0,30.30,WSW,250,3.1,4.0,0,0.00,,---,0.00,VWS V14.01,2013-02-19 01:02:00,
2013-02-18 20:07:00,0.0,0.0,30.30,WSW,252,5.8,6.3,0,0.00,,---,0.00,VWS V14.01,2013-02-19 01:07:00,
2013-02-18 20:12:00,0.0,0.0,30.30,West,268,5.8,6.3,0,0.00,,---,0.00,VWS V14.01,2013-02-19 01:12:00,
2013-02-18 20:17:00,0.0,0.0,30.30,West,262,6.3,6.3,0,0.00,,---,0.00,VWS V14.01,2013-02-19 01:17:00,
2013-02-18 20:22:00,0.0,0.0,30.30,WSW,255,4.0,5.4,0,0.00,,---,0.00,VWS V14.01,2013-02-19 01:22:00,
2013-02-18 20:27:00,0.0,0.0,30.30,West,265,4.0,4.0,0,0.00,,---,0.00,VWS V14.01,2013-02-19 01:27:00,
2013-02-18 20:32:00,0.0,0.0,30.30,WSW,247,4.9,4.9,0,0.00,,---,0.00,VWS V14.01,2013-02-19 01:32:00,
2013-02-18 20:37:00,0.0,0.0,30.30,WSW,252,4.9,5.8,0,0.00,,---,0.00,VWS V14.01,2013-02-19 01:37:00,
2013-02-18 20:42:00,0.0,0.0,30.30,West,259,4.0,6.3,0,0.00,,---,0.00,VWS V14.01,2013-02-19 01:42:00,
2013-02-18 20:47:00,0.0,0.0,30.30,West,259,5.8,5.8,0,0.00,,---,0.00,VWS V14.01,2013-02-19 01:47:00,
2013-02-18 20:52:00,0.0,0.0,30.30,West,263,3.6,4.9,0,0.00,,---,0.00,VWS V14.01,2013-02-19 01:52:00,
2013-02-18 20:57:00,0.0,0.0,30.30,WSW,249,4.0,4.9,0,0.00,,---,0.00,VWS V14.01,2013-02-19 01:57:00,
2013-02-18 21:02:00,0.0,0.0,30.27,WSW,250,3.1,3.6,0,0.00,,---,0.00,VWS V14.01,2013-02-19 02:02:00,
2013-02-18 21:07:00,0.0,0.0,30.27,WSW,256,5.8,6.7,0,0.00,,---,0.00,VWS V14.01,2013-02-19 02:07:00,
2013-02-18 21:12:00,0.0,0.0,30.30,WSW,247,7.6,8.1,0,0.00,,---,0.00,VWS V14.01,2013-02-19 02:12:00,
2013-02-18 21:17:00,0.0,0.0,30.30,WSW,257,6.7,8.1,0,0.00,,---,0.00,VWS V14.01,2013-02-19 02:17:00,
2013-02-18 21:22:00,0.0,0.0,30.30,WSW,251,4.0,8.3,0,0.00,,---,0.00,VWS V14.01,2013-02-19 02:22:00,
2013-02-18 21:27:00,0.0,0.0,30.30,West,262,5.4,8.1,0,0.00,,---,0.00,VWS V14.01,2013-02-19 02:27:00,
2013-02-18 21:32:00,0.0,0.0,30.30,WSW,241,7.6,7.6,0,0.00,,---,0.00,VWS V14.01,2013-02-19 02:32:00,
2013-02-18 21:37:00,0.0,0.0,30.30,WSW,238,4.9,8.3,0,0.00,,---,0.00,VWS V14.01,2013-02-19 02:37:00,
2013-02-18 21:42:00,0.0,0.0,30.30,SW,236,8.3,8.3,0,0.00,,---,0.00,VWS V14.01,2013-02-19 02:42:00,
2013-02-18 21:47:00,0.0,0.0,30.30,SW,234,5.8,11.0,0,0.00,,---,0.00,VWS V14.01,2013-02-19 02:47:00,
2013-02-18 21:52:00,0.0,0.0,30.30,WSW,237,4.9,8.3,0,0.00,,---,0.00,VWS V14.01,2013-02-19 02:52:00,
2013-02-18 21:57:00,0.0,0.0,30.27,SW,233,7.6,7.6,0,0.00,,---,0.00,VWS V14.01,2013-02-19 02:57:00,
2013-02-18 22:03:00,0.0,0.0,30.27,WSW,241,8.3,11.0,0,0.00,,---,0.00,VWS V14.01,2013-02-19 03:03:00,
2013-02-18 22:08:00,0.0,0.0,30.27,WSW,246,6.3,7.6,0,0.00,,---,0.00,VWS V14.01,2013-02-19 03:08:00,
2013-02-18 22:13:00,0.0,0.0,30.27,WSW,240,7.6,8.1,0,0.00,,---,0.00,VWS V14.01,2013-02-19 03:13:00,
2013-02-18 22:18:00,0.0,0.0,30.27,SW,225,5.8,10.5,0,0.00,,---,0.00,VWS V14.01,2013-02-19 03:18:00,
2013-02-18 22:23:00,0.0,0.0,30.27,WSW,242,5.8,8.7,0,0.00,,---,0.00,VWS V14.01,2013-02-19 03:23:00,
2013-02-18 22:28:00,0.0,0.0,30.27,SW,217,4.0,10.1,0,0.00,,---,0.00,VWS V14.01,2013-02-19 03:28:00,
2013-02-18 22:33:00,0.0,0.0,30.27,WSW,250,6.3,10.5,0,0.00,,---,0.00,VWS V14.01,2013-02-19 03:33:00,
2013-02-18 22:38:00,0.0,0.0,30.27,West,267,8.1,8.7,0,0.00,,---,0.00,VWS V14.01,2013-02-19 03:38:00,
2013-02-18 22:43:00,0.0,0.0,30.27,WSW,246,6.3,8.1,0,0.00,,---,0.00,VWS V14.01,2013-02-19 03:43:00,
2013-02-18 22:48:00,0.0,0.0,30.27,WSW,254,8.3,8.3,0,0.00,,---,0.00,VWS V14.01,2013-02-19 03:48:00,
2013-02-18 22:53:00,0.0,0.0,30.27,West,263,8.3,9.6,0,0.00,,---,0.00,VWS V14.01,2013-02-19 03:53:00,
2013-02-18 22:58:00,0.0,0.0,30.27,WSW,251,8.3,11.0,0,0.00,,---,0.00,VWS V14.01,2013-02-19 03:58:00,
2013-02-18 23:03:00,0.0,0.0,30.27,WSW,254,10.5,10.5,0,0.00,,---,0.00,VWS V14.01,2013-02-19 04:03:00,
2013-02-18 23:08:00,0.0,0.0,30.27,WSW,244,8.3,8.3,0,0.00,,---,0.00,VWS V14.01,2013-02-19 04:08:00,
2013-02-18 23:13:00,0.0,0.0,30.27,SW,219,5.8,6.7,0,0.00,,---,0.00,VWS V14.01,2013-02-19 04:13:00,
2013-02-18 23:18:00,0.0,0.0,30.27,West,267,8.3,8.7,0,0.00,,---,0.00,VWS V14.01,2013-02-19 04:18:00,
2013-02-18 23:23:00,0.0,0.0,30.27,WSW,237,8.3,8.3,0,0.00,,---,0.00,VWS V14.01,2013-02-19 04:23:00,
2013-02-18 23:28:00,0.0,0.0,30.27,SW,233,7.6,7.6,0,0.00,,---,0.00,VWS V14.01,2013-02-19 04:28:00,
2013-02-18 23:33:00,0.0,0.0,30.27,South,190,8.1,8.1,0,0.00,,---,0.00,VWS V14.01,2013-02-19 04:33:00,
2013-02-18 23:38:00,0.0,0.0,30.27,SW,218,6.3,8.3,0,0.00,,---,0.00,VWS V14.01,2013-02-19 04:38:00,
2013-02-18 23:43:00,0.0,0.0,30.27,South,181,5.8,10.5,0,0.00,,---,0.00,VWS V14.01,2013-02-19 04:43:00,
2013-02-18 23:48:00,0.0,0.0,30.27,SW,230,6.3,8.7,0,0.00,,---,0.00,VWS V14.01,2013-02-19 04:48:00,
2013-02-18 23:53:00,0.0,0.0,30.27,WSW,254,2.7,10.5,0,0.00,,---,0.00,VWS V14.01,2013-02-19 04:53:00,
2013-02-18 23:58:00,0.0,0.0,30.27,SW,232,9.6,9.6,0,0.00,,---,0.00,VWS V14.01,2013-02-19 04:58:00,